ドゥ・トイト-ニェウイミン-デルポルト彗星

57P/du Toit-Neujmin-Delporte (1996)

English version
Home page
Updated on May 5, 2012

---------------------------------------------------------------------

・ プロフィール

・ 軌道要素

Epoch 1996 Mar. 18.0 TT = JDT 2450160.5
T 1996 Mar. 5.72766 TT                                  MPC
q   1.7196458            (2000.0)            P               Q
n   0.15416717     Peri.  115.21843     +0.56196190     +0.82712677
a   3.4446210      Node   188.98523     -0.77565465     +0.52368828
e   0.5007736      Incl.    2.84587     -0.28733027     +0.20398992
P   6.39
From 594 observations 1995 May 23-2009 Nov. 24, mean residual 0".9.
     Nongravitational parameters A1 = +1.48, A2 = +0.0025.

・ 星図

・ 1995年 7月 2日〜1996年 4月 7日
・ 1996年 4月 7日〜1997年 5月12日

・ 光度変化

        m1 = 12.5 + 5 logΔ + 15.0 log r  [   ,120]  (              〜1996年 7月 3日)
        m1 =  1.4 + 5 logΔ + 30.0 log r  [120,   ]  (1996年 7月 3日〜              )

---------------------------------------------------------------------

軌道要素はM.P.E.C. 2012-J16に掲載されたものです。
星図は StellaNavigator Ver.2.0 for Windows (アストロアーツ編著 / アスキー出版局刊) で作成したものです。
光度グラフはComet for Windowsで作成したものです。

---------------------------------------------------------------------

Copyright(C) Seiichi Yoshida (comet@aerith.net). All rights reserved.